DW7756 Weather Reports


Display with metric or nautical units.
time (UTC)temp
F
wind
direction
speed
MPH
gust
MPH
rain 1hr
in
rain 24hr
in
rain mn
in
humidity
%
barometer
mb
20260904110037 77 0 0.0 2.0 0.00 0.20 0.00 91 1014.9
20260904104536 77 0 0.0 0.0 0.00 0.67 0.00 90 1014.6
20260904103049 77 0 0.0 0.0 0.00 0.67 0.00 90 1014.5
20260904101547 77 0 0.0 0.0 0.00 0.67 0.00 90 1014.5
20260904100035 77 0 0.0 0.0 0.00 0.67 0.00 90 1014.4
20260904094556 77 0 0.0 0.0 0.00 0.67 0.00 90 1014.4
20260904093038 77 0 0.0 0.0 0.00 0.67 0.00 90 1014.3
20260904091535 77 0 0.0 0.0 0.00 0.67 0.00 90 1014.2
20260904090037 77 0 0.0 0.0 0.00 0.67 0.00 90 1014.3
20260904084539 77 0 0.0 0.0 0.00 0.67 0.00 90 1014.2
20260904083046 77 0 0.0 0.0 0.00 0.67 0.00 90 1014.1
20260904081539 77 0 0.0 0.0 0.00 0.67 0.00 90 1014.0
20260904080038 77 0 0.0 0.0 0.00 0.67 0.00 90 1014.1
20260904074547 77 0 0.0 0.0 0.00 0.68 0.00 90 1014.0
20260904073047 77 0 0.0 0.0 0.00 0.68 0.00 89 1013.9
20260904071539 77 0 0.0 0.0 0.00 0.68 0.00 89 1013.9
20260904070039 77 0 0.0 0.0 0.00 0.68 0.00 89 1014.0
20260904064540 77 0 0.0 0.0 0.00 0.68 0.00 89 1014.2
20260904063039 78 0 0.0 0.0 0.00 0.68 0.00 89 1014.3
20260904061538 78 0 0.0 0.0 0.00 0.68 0.00 89 1014.5
20260904060056 78 0 0.0 0.0 0.00 0.68 0.00 89 1014.7
20260904054554 78 0 0.0 0.0 0.00 0.68 0.00 89 1014.7
20260904053042 78 0 0.0 0.0 0.00 0.68 0.00 89 1014.8
20260904051539 78 0 0.0 2.0 0.00 0.68 0.00 89 1015.1
20260904050040 79 98 0.0 2.0 0.00 0.68 0.00 89 1015.2
20260904044543 79 125 0.0 2.0 0.00 0.68 0.00 89 1015.1
20260904043041 79 0 0.0 2.0 0.00 0.68 0.00 89 1015.0
20260904041536 79 121 0.0 2.0 0.00 0.68 0.00 89 1014.9
20260904040041 79 0 0.0 2.0 0.00 0.68 0.00 89 1014.9
20260904034534 79 66 0.0 3.0 0.00 0.68 0.68 89 1014.7
20260904033035 79 99 1.0 2.0 0.00 0.68 0.68 89 1014.6
20260904031536 79 83 1.0 2.0 0.00 0.68 0.68 89 1014.9
20260904030037 79 0 0.0 0.0 0.00 0.68 0.68 88 1015.0
20260904024536 79 0 0.0 0.0 0.00 0.68 0.68 88 1015.0
20260904023034 79 0 0.0 0.0 0.00 0.68 0.68 88 1015.1
20260904021537 79 0 0.0 0.0 0.00 0.68 0.68 88 1015.2
20260904020038 79 0 0.0 0.0 0.00 0.68 0.68 87 1015.3
20260904014612 79 0 0.0 0.0 0.00 0.68 0.68 87 1015.2
20260904013044 79 0 0.0 0.0 0.00 0.68 0.68 87 1015.1
20260904011538 80 0 0.0 2.0 0.00 0.68 0.68 87 1015.1
20260904010035 80 0 0.0 2.0 0.00 0.68 0.68 87 1015.1
20260904004535 80 0 0.0 2.0 0.00 0.68 0.68 86 1014.7
20260904003038 80 78 0.0 2.0 0.00 0.68 0.68 86 1014.6
20260904001538 80 0 0.0 0.0 0.00 0.68 0.68 86 1014.5
20260904000035 81 0 0.0 2.0 0.00 0.68 0.68 85 1014.5
20260903234544 81 0 0.0 1.0 0.00 0.68 0.68 85 1014.7
20260903233039 81 0 0.0 2.0 0.00 0.68 0.68 84 1014.5
20260903231537 81 171 0.0 2.0 0.00 0.68 0.68 84 1014.5
20260903230039 82 135 0.0 4.0 0.00 0.68 0.68 84 1014.4
20260903224537 82 0 0.0 6.0 0.00 0.68 0.68 84 1014.0
20260903223039 82 117 1.0 3.0 0.00 0.68 0.68 83 1014.1
20260903221538 82 86 1.0 4.0 0.00 0.68 0.68 83 1014.0
20260903220037 82 88 2.0 7.0 0.00 0.68 0.68 83 1013.9
20260903214541 82 88 1.0 9.0 0.00 0.68 0.68 82 1014.0
20260903213044 83 85 1.0 3.0 0.00 0.68 0.68 82 1013.9
20260903211555 83 80 1.0 4.0 0.00 0.68 0.68 82 1013.6
20260903210038 83 159 2.0 4.0 0.00 0.68 0.68 82 1013.3
20260903204538 83 80 1.0 5.0 0.00 0.68 0.68 82 1013.3
20260903203040 83 67 1.0 3.0 0.00 0.68 0.68 83 1013.6
20260903201538 82 0 0.0 4.0 0.00 0.68 0.68 85 1013.7
20260903194539 81 67 2.0 5.0 0.00 0.68 0.68 88 1014.2
20260903193039 80 86 3.0 8.0 0.00 0.68 0.68 89 1014.1
20260903191539 80 97 1.0 6.0 0.00 0.68 0.68 90 1014.2
20260903190038 80 118 2.0 5.0 0.00 0.68 0.68 91 1014.4
20260903184548 80 71 1.0 6.0 0.00 0.68 0.68 91 1014.7
20260903183035 79 55 1.0 8.0 0.00 0.68 0.68 91 1015.0
20260903181542 79 66 1.0 4.0 0.00 0.68 0.68 91 1015.3
20260903180039 79 62 1.0 4.0 0.00 0.68 0.68 91 1015.3
20260903174539 79 146 1.0 4.0 0.01 0.88 0.68 92 1015.2
20260903173039 78 101 1.0 7.0 0.02 0.88 0.68 91 1015.3
20260903171544 78 69 1.0 4.0 0.03 0.88 0.68 91 1015.1
20260903170036 78 118 1.0 5.0 0.07 0.88 0.68 91 1015.4
20260903164536 78 119 1.0 4.0 0.07 0.87 0.67 91 1015.4
20260903163042 77 80 1.0 3.0 0.06 0.86 0.66 91 1015.9
20260903161538 77 80 1.0 4.0 0.05 0.85 0.65 91 1015.9
20260903160038 77 63 1.0 9.0 0.02 0.81 0.61 91 1016.0
20260903154539 77 103 2.0 7.0 0.01 0.90 0.60 91 1016.3
20260903153040 77 94 2.0 9.0 0.02 0.90 0.60 91 1016.3
20260903151539 78 61 1.0 3.0 0.02 0.90 0.60 91 1016.1
20260903150036 78 46 1.0 3.0 0.01 0.89 0.58 91 1016.2
20260903144539 78 19 1.0 2.0 0.02 0.89 0.58 91 1016.0
20260903143040 78 46 1.0 2.0 0.03 0.88 0.58 91 1016.0
20260903141535 78 5 1.0 3.0 0.04 0.88 0.58 91 1015.8
20260903140045 77 329 1.0 3.0 0.04 0.88 0.58 91 1015.6
20260903134535 77 0 0.0 3.0 0.03 0.87 0.57 91 1015.7
20260903133042 77 0 0.0 2.0 0.01 0.85 0.55 91 1015.5
20260903131537 77 0 0.0 2.0 0.00 0.84 0.54 91 1015.3
20260903130054 77 40 0.0 3.0 0.00 0.84 0.54 91 1015.4
20260903124547 77 348 2.0 5.0 0.00 0.84 0.54 91 1015.3
20260903123045 77 5 2.0 7.0 0.00 0.84 0.54 91 1015.3
20260903121539 77 341 2.0 5.0 0.05 0.84 0.54 91 1015.1
20260903120037 77 12 2.0 3.0 0.06 0.84 0.54 90 1015.0
20260903114539 77 304 2.0 5.0 0.06 0.84 0.54 90 1015.0
20260903113036 77 333 1.0 3.0 0.06 0.84 0.54 90 1014.9
20260903111537 77 0 0.0 4.0 0.15 0.79 0.49 90 1014.6